Regional Weather Roundup
Issued by NWS Grand Forks, ND

Home | Current Version | Previous Version | Text Only | Print | Product List | Glossary On
Versions: 1 2 3 4 5 6 7 8 9 10 11 12 13 14 15 16 17 18 19 20 21 22 23 24 25 26 27 28 29 30 31 32 33 34 35 36 37 38 39 40 41 42 43 44 45 46 47 48 49 50
000
ASUS43 KFGF 170431
RWRFGF
PRAIRIE TO PINES  WEATHER ROUNDUP
NATIONAL WEATHER SERVICE EASTERN NORTH DAKOTA/GRAND FORKS ND
1100 PM CDT WED APR 16 2014

 **SATELLITE DATA USED TO AUGMENT SKY COVER AT AUTOMATED STATIONS**
 *****  WEATHER ACROSS EASTERN NORTH DAKOTA  *****

CITY           SKY/WX    TMP DP  RH WIND       PRES   REMARKS
GRAND FORKS    CLEAR     28  21  75 N10       30.25R WCI  19
GRAND FRKS AFB CLEAR     27  19  73 N14       30.30R WCI  15
GRAND FRKS NWS   N/A     28 N/A N/A VRB5        N/A  WCI  23
DEVILS LAKE    CLEAR     25  12  58 NE12      30.30R WCI  14
FARGO          CLEAR     31  19  61 N14       30.22R WCI  21
WAHPETON ARPT  CLEAR     28  21  74 N3        30.21R
$$

 ***** WEATHER ACROSS CENTRAL AND WESTERN NORTH DAKOTA  *****

CITY           SKY/WX    TMP DP  RH WIND       PRES   REMARKS
BISMARCK       CLOUDY    30  15  53 NE8       30.26R WCI  22
MINOT          CLOUDY    26  15  63 NE9       30.28S WCI  17
JAMESTOWN      CLEAR     27  16  63 N9        30.24R WCI  18
MINOT AFB      PTCLDY    25  15  66 E7        30.29R WCI  17
GARRISON         N/A     30  17  58 NE9       30.26R WCI  22
WILLISTON        N/A    N/A N/A N/A MISG      30.27S
DICKINSON      CLOUDY    27  20  75 E8        30.19S WCI  19
HETTINGER      MOCLDY    26  21  81 E6        30.20R WCI  19
$$

 *****  OTHER AIRPORT OBSERVATIONS IN OUR AREA  *****

CITY           SKY/WX    TMP DP  RH WIND       PRES   REMARKS
WALHALLA       FAIR      25  16  68 NW7       30.36R WCI  17
GRAFTON AIRPOR FAIR      27  16  63 N13G21    30.32R WCI  16
VALLEY CITY AR NOT AVBL
CANDO          FAIR      23  12  63 NE9       30.32S WCI  13
CAVALIER APRT  FAIR      27  16  63 N8        30.34S WCI  18
GWINNER        CLEAR     28  23  80 N9        30.22S WCI  20
SHEYENNE NWR     N/A     29  22  74 N6        29.95S WCI  23
ROLLA          FAIR      21  12  68 NE9       30.33R WCI  11
 ***** THE ABOVE OBSERVATIONS ARE NON NWS ARE NOT QUALITY
       CONTROLLED AND MAY MIS-REPORT RAIN FOR SNOW...
$$

  *****  WEATHER ACROSS NORTHERN MINNESOTA  *****

CITY           SKY/WX    TMP DP  RH WIND       PRES   REMARKS
FLAG ISLAND    CLEAR     27   5  39 NE7       30.29S WCI  19
WARROAD        CLEAR     27   9  46 N10       30.29S WCI  17
ROSEAU         CLEAR     27  14  59 N6        30.29R WCI  20
HALLOCK        CLOUDY    27  14  59 N12       30.31S WCI  16
THF RVR FALLS  CLEAR     30   9  40 N10       30.27R WCI  21
BAUDETTE       PTCLDY    28   8  43 NE10      30.27R WCI  19
WASKISH        PTCLDY    28   9  43 N6        30.23S WCI  22
CROOKSTON      CLEAR     28  16  59 NE8       30.28R WCI  20
$$
  *****  WEATHER ACROSS CENTRAL AND WEST MINNESOTA  *****

CITY           SKY/WX    TMP DP  RH WIND       PRES   REMARKS
FOSSTON        CLEAR     27  12  54 N9        30.23R WCI  17
BEMIDJI        CLEAR     25  15  64 NE5       30.20S WCI  19
PARK RAPIDS    CLEAR     26  19  74 NE7       30.18R WCI  18
ELBOW LAKE     FAIR      27  21  78 NE10      30.16S WCI  17
WADENA         CLEAR     25  18  74 N10       30.16R WCI  15
DETROIT LAKES  CLEAR     28  21  74 NE5       30.20R WCI  23
MOORHEAD       CLEAR     30  25  80 N7        30.23R WCI  23
FERGUS FALLS   CLEAR     28  19  69 NE7       30.17S WCI  21
MORRIS MN      CLEAR     28  21  74 N14       30.14S WCI  17
STAPLES        CLOUDY    27  19  74 NE9       30.14F WCI  17
$$
  *****  WEATHER ELSEWHERE ACROSS MINNESOTA  *****

CITY           SKY/WX    TMP DP  RH WIND       PRES   REMARKS
DULUTH         LGT SNOW  26  22  84 NE18G32   30.12F VSB 3/4 WCI  13
INTRNTL FALLS  CLEAR     28   8  43 NE6       30.24R WCI  22
ELY            MOCLDY    23  18  80 NE6       30.21F WCI  16
CLOQUET        LGT SNOW  27  25  93 NE18      30.12S WCI  13
WHEATON        CLEAR     28  23  80 N5        30.21R WCI  23
BRAINERD       CLOUDY    31  21  66 NE15      30.14R WCI  20
HIBBING        CLOUDY    26  19  74 NE8       30.18F WCI  18
ALEXANDRIA     PTCLDY    27  19  74 NE16      30.13R WCI  14
SAINT CLOUD    CLOUDY    29  23  78 N13G24    30.05R WCI  19
MINNEAPOLIS    FRZ RAIN  31  31 100 N16       29.94R FOG     WCI  20
$$

  *****  WEATHER ACROSS SOUTH DAKOTA  *****

CITY           SKY/WX    TMP DP  RH WIND       PRES   REMARKS
SIOUX FALLS    CLOUDY    29  25  85 N15G28    30.11R WCI  18
BROOKINGS      NOT AVBL
WATERTOWN      PTCLDY    24  19  81 N15       30.13R WCI  11
HURON          PTCLDY    30  22  72 NE12      30.19R WCI  20
SISSETON         N/A     21  19  92 N7        30.19R WCI  12
ABERDEEN       CLEAR     23  19  85 N8        30.21R WCI  14
MITCHELL       CLOUDY    32  24  72 N14       30.18R WCI  22
PIERRE         PTCLDY    26  20  77 N7        30.22R WCI  18
MOBRIDGE       MOCLDY    26  18  71 NE7       30.20R WCI  18
RAPID CITY     CLOUDY    31  24  75 SE3       30.18R
$$

  *****  SOME WEATHER IN NEARBY STATES *****

CITY           SKY/WX    TMP DP  RH WIND       PRES   REMARKS
GLASGOW MT     PTCLDY    28  19  69 E14       30.19R WCI  17
GREAT FALLS MT CLEAR     35  32  88 SE9       29.97S
CHEYENNE WY    CLOUDY    34  29  82 SW9       30.08R
SCOTTSBLUFF NE PTCLDY    35  29  78 SE8       30.13R
OMAHA NE       CLOUDY    37  29  72 NW21G28   30.08R
DES MOINES IA  CLOUDY    45  37  73 W18G28    29.93R
DAVENPORT IA   PTCLDY    48  27  44 S25G33    30.01S
CHICAGO IL     MOCLDY    45  23  42 S14       30.16R
EAU CLAIRE WI  LGT RAIN  39  35  86 E8        29.94F
LA CROSSE WI   CLOUDY    51  28  41 SE16G26   29.90F
$$

  *****  SOME NATIONAL WEATHER *****

CITY           SKY/WX    TMP DP  RH WIND       PRES   REMARKS
LA GUARDIA NY  CLEAR     40  15  36 NE9       30.57R
RALEIGH NC     CLEAR     43  27  53 E10       30.46R
ATLANTA GA     PTCLDY    49  30  48 E10       30.30R
NEW ORLEANS LA CLEAR     53  44  71 CALM      30.17S
OKLAHOMA CITY  PTCLDY    55  35  47 SE15      30.00R
ALBUQUERQUE NM CLOUDY    60  23  24 N13       29.94R
SALT LAKE CITY PTCLDY    49  16  26 CALM      30.02R
LOS ANGELES CA PTCLDY    59  53  80 SW6       29.85R
BOISE ID       CLEAR     53  18  25 N5        29.98R
SEATTLE WA     CLOUDY    51  48  89 SE8       29.98F
$$

*** WEATHER ACROSS MANITOBA...SASKATCHEWAN AND ONTARIO ***
                ***ONTARIO***

CITY           SKY/WX    TMP DP  RH WIND       PRES   REMARKS
GERALDTON      PTCLDY    14   3  62 CALM      30.37R
THUNDER BAY    CLOUDY    27  23  86 E12       30.34S WCI  16
SIOUX LOOKOUT  CLEAR     19   0  42 NE3       30.32S
TORONTO        PTCLDY    32  21  64 E6        30.52S
BIG TROUT LK   NOT AVBL
PICKLE LAKE    NOT AVBL
DRYDEN         CLEAR     21   0  39 NE5       30.30S WCI  15
KENORA         CLEAR     25   0  33 NE7       30.31R WCI  17
$$
                *** MANITOBA***

CITY           SKY/WX    TMP DP  RH WIND       PRES   REMARKS
BRANDON        CLEAR     19  16  86 N6        30.38S WCI  11
DAUPHIN        CLEAR     21  16  79 E5        30.41S WCI  15
ISLAND LAKE    CLEAR     10   5  79 CALM      30.41S
PILOT MOUND      N/A     19  12  73 N7          N/A  WCI  10
THE PAS        CLEAR     18   3  53 SE5       30.42S WCI  11
THOMPSON       CLEAR      7   1  78 W3        30.39S
WINNIPEG       CLEAR     21   9  58 NE12      30.38R WCI   9
LYNN LAKE      CLEAR     12  -6  44 SW5       30.36S WCI   4
CHURCHILL      MOCLDY    14   5  67 W17       30.22F WCI  -3
GILLAM         CLEAR     14   5  67 SW9       30.35F WCI   2
$$
                ***SASKATCHEWAN***

CITY           SKY/WX    TMP DP  RH WIND       PRES   REMARKS
ESTEVAN        PTCLDY    23  18  80 E7        30.30R WCI  15
KINDERSLEY     MOCLDY    27  21  80 E16       30.14F WCI  14
LLOYDMINSTER   CLOUDY    27  21  80 SE16      30.15F WCI  14
PRINCE ALBERT  CLEAR     19   9  63 E6        30.33S WCI  11
REGINA         PTCLDY    27  21  80 S10       30.28F WCI  17
YORKTON        CLEAR     19  12  73 SE7       30.35S WCI  10
N. BATTLEFORD  FLURRIES  27  25  93 SE13      30.24F WCI  16
LA RONGE       CLEAR     18   1  49 E5        30.34S WCI  11
SASKATOON      PTCLDY    21  16  79 E8        30.28S WCI  12
SWIFT CURRENT  FLURRIES  25  23  93 SE17G26   30.13S WCI  11
$$
NOTE: THESE ARE AUTOMATED STATIONS WITH LIMITED QUALITY CONTROL
      "FAIR" INDICATES FEW OR NO CLOUDS BELOW 12,000 FEET WITH NO
      SIGNIFICANT WEATHER AND/OR OBSTRUCTIONS TO VISIBILITY.
      SKY/WX - SKY CONDITION AND SIGNIFICANT WEATHER.
      TMP - AIR TEMPERATURE.    DP   - DEWPOINT TEMPERATURE.
      RH  - RELATIVE HUMIDITY.  PRES - PRESSURE.
      HX  - HEAT INDEX.         WCI  - WIND CHILL INDEX.
$



USA.gov is the U.S. government's official web portal to all federal, state and local government web resources and services.